WGS F5 (USA 243)

Last updated on Fri Sep 19 2025 00:02:48 GMT+0000 (Coordinated Universal Time)

1 39168U 13024A 25261.00064655 -.00000305 00000+0 00000+0 0 9996 2 39168 0.0200 148.3407 0000340 117.6154 38.9519 1.00271127 44442
UTC large
Height (km)
Speed (km/s)
/
Latitude / Longitude
Inclination (degrees)
Orbital Period (minutes)
Azimuth
Elevation
Range (km)
Doppler Factor

Next 0 passes for location: London (51.5072 / 0.1276)

Sorry there are no passes over London.